Location: Newark
(44.6768°N, 22.5302°E)
Time: 21:44:25
(UTC+00:00)

AO-92 - Pass Details

Date: 28 June 2022
Orbit: 469 x 481 km, 97.4° (Epoch: 13 August)

Event Time Altitude Azimuth Distance (km) Brightness Sun altitude
Exits shadow 19:31:35 11° 106° (ESE) 1,575 ? -10.4°
Maximum altitude 19:33:43 17° 66° (ENE) 1,263 ? -10.7°
Drops below altitude 10° 19:36:08 10° 24° (NNE) 1,663 ? -11.0°
Sets 19:38:42 0° 4° (N) 2,552 ? -11.3°
